DLH14C EDDF-LEMD

Flight info

Callsign DLH14C
Flight time 2h 8m
Altitude 39000
Route ANEKI3F/25C ANEKI Y163 HERBI/N0451F390 Y164 MOPAN DCT LUTIX DCT BENOT DCT NEMOS DCT NINTU/N0462F410 DCT MEBAK DCT REPSI DCT LERGA DCT MINSO DCT NARAK DCT AGN DCT MAQAB DCT TIVLI N869 ZAR Z245 TERSA
Aircraft A343/H-SDE2E3FGHIJ4J5M1RWXY/LB1D1

Departure

Time 2026-05-04 13:52
Airport Frankfurt Main Airport (EDDF)

Arrival

Time 2026-05-04 16:00
Airport Adolfo Suárez Madrid–Barajas Airport (LEMD)
Time Latitude Longitude Altitude Speed Heading
2026-05-04 13:06 50.04829 8.57620 366 ft 0 kts 202°
2026-05-04 13:41 50.04844 8.57629 366 ft 4 kts 202°
2026-05-04 13:41 50.04864 8.57643 367 ft 4 kts 201°
2026-05-04 13:41 50.04888 8.57648 368 ft 4 kts 153°
2026-05-04 13:42 50.04909 8.57615 364 ft 4 kts 114°
2026-05-04 13:42 50.04908 8.57618 364 ft 0 kts 114°
2026-05-04 13:46 50.04907 8.57622 365 ft 1 kts 114°
2026-05-04 13:46 50.04897 8.57656 368 ft 6 kts 114°
2026-05-04 13:46 50.04873 8.57745 369 ft 11 kts 113°
2026-05-04 13:47 50.04843 8.57853 370 ft 12 kts 115°
2026-05-04 13:47 50.04791 8.57945 369 ft 11 kts 112°
2026-05-04 13:47 50.04805 8.58064 369 ft 12 kts 67°
2026-05-04 13:47 50.04834 8.58184 370 ft 12 kts 70°
2026-05-04 13:48 50.04863 8.58308 369 ft 13 kts 70°
2026-05-04 13:48 50.04896 8.58445 370 ft 14 kts 70°
2026-05-04 13:48 50.04927 8.58575 367 ft 10 kts 70°
2026-05-04 13:48 50.04924 8.58654 370 ft 5 kts 129°
2026-05-04 13:49 50.04901 8.58677 372 ft 4 kts 155°
2026-05-04 13:49 50.04859 8.58700 372 ft 9 kts 160°
2026-05-04 13:49 50.04797 8.58736 374 ft 9 kts 160°
2026-05-04 13:49 50.04745 8.58765 378 ft 7 kts 161°
2026-05-04 13:50 50.04695 8.58767 374 ft 8 kts 187°
2026-05-04 13:50 50.04625 8.58750 374 ft 13 kts 195°
2026-05-04 13:50 50.04552 8.58675 375 ft 13 kts 218°
2026-05-04 13:50 50.04489 8.58588 374 ft 10 kts 236°
2026-05-04 13:51 50.04453 8.58445 377 ft 27 kts 250°
2026-05-04 13:51 50.04315 8.57870 369 ft 87 kts 250°
2026-05-04 13:51 50.04042 8.56723 365 ft 137 kts 250°
2026-05-04 13:51 50.03664 8.55128 420 ft 171 kts 248°
2026-05-04 13:52 50.02829 8.51770 1983 ft 166 kts 247°
2026-05-04 13:52 50.02378 8.50788 2477 ft 169 kts 218°
2026-05-04 13:52 50.01315 8.49910 3121 ft 181 kts 200°
2026-05-04 13:53 50.00091 8.49278 3660 ft 196 kts 197°
2026-05-04 13:53 49.98650 8.49179 4261 ft 216 kts 169°
2026-05-04 13:53 49.97333 8.50364 4861 ft 234 kts 135°
2026-05-04 13:54 49.94668 8.53115 6011 ft 242 kts 178°
2026-05-04 13:54 49.92930 8.53220 6475 ft 257 kts 181°
2026-05-04 13:54 49.89274 8.53400 7927 ft 266 kts 179°
2026-05-04 13:55 49.87421 8.53517 8698 ft 266 kts 178°
2026-05-04 13:55 49.83756 8.53762 10251 ft 266 kts 178°
2026-05-04 13:55 49.81855 8.53891 10559 ft 282 kts 178°
2026-05-04 13:56 49.79837 8.54030 10824 ft 298 kts 178°
2026-05-04 13:56 49.77712 8.54056 11078 ft 313 kts 184°
2026-05-04 13:56 49.73330 8.52757 12002 ft 327 kts 194°
2026-05-04 13:57 49.71120 8.51776 12528 ft 332 kts 197°
2026-05-04 13:57 49.68912 8.50695 13097 ft 335 kts 198°
2026-05-04 13:58 49.62171 8.47232 14760 ft 344 kts 198°
2026-05-04 13:58 49.57620 8.44926 15913 ft 349 kts 198°
2026-05-04 13:58 49.55304 8.43762 16503 ft 352 kts 198°
2026-05-04 13:59 49.52969 8.42592 17107 ft 354 kts 198°
2026-05-04 13:59 49.50615 8.41416 17688 ft 357 kts 198°
2026-05-04 13:59 49.45856 8.39047 18760 ft 362 kts 199°
2026-05-04 14:00 49.43453 8.37854 19276 ft 364 kts 199°
2026-05-04 14:00 49.38501 8.36176 20304 ft 372 kts 179°
2026-05-04 14:00 49.35945 8.36964 20821 ft 378 kts 165°
2026-05-04 14:01 49.33443 8.38281 21323 ft 382 kts 163°
2026-05-04 14:01 49.30938 8.39666 21811 ft 384 kts 163°
2026-05-04 14:01 49.25762 8.41463 22802 ft 381 kts 186°
2026-05-04 14:02 49.23199 8.40547 23288 ft 380 kts 203°
2026-05-04 14:02 49.20759 8.38953 23689 ft 384 kts 204°
2026-05-04 14:02 49.18232 8.37541 23999 ft 389 kts 200°
2026-05-04 14:02 49.15667 8.36212 24390 ft 391 kts 200°
2026-05-04 14:03 49.13080 8.34910 24806 ft 392 kts 199°
2026-05-04 14:03 49.10482 8.33628 25208 ft 394 kts 199°
2026-05-04 14:03 49.07863 8.32347 25612 ft 395 kts 199°
2026-05-04 14:03 49.05246 8.31028 25997 ft 397 kts 200°
2026-05-04 14:04 48.99991 8.28303 26762 ft 400 kts 200°
2026-05-04 14:04 48.97345 8.26923 27137 ft 403 kts 200°
2026-05-04 14:04 48.94726 8.25562 27514 ft 404 kts 200°
2026-05-04 14:05 48.89374 8.22798 28300 ft 408 kts 200°
2026-05-04 14:05 48.86680 8.21413 28662 ft 409 kts 200°
2026-05-04 14:05 48.83977 8.20026 29051 ft 411 kts 200°
2026-05-04 14:06 48.81261 8.18633 29417 ft 413 kts 200°
2026-05-04 14:06 48.78536 8.17234 29773 ft 414 kts 200°
2026-05-04 14:06 48.75801 8.15835 30144 ft 415 kts 200°
2026-05-04 14:06 48.73053 8.14434 30426 ft 417 kts 200°
2026-05-04 14:07 48.70292 8.13028 30689 ft 420 kts 200°
2026-05-04 14:07 48.67516 8.11615 30949 ft 422 kts 200°
2026-05-04 14:07 48.64720 8.10193 31212 ft 425 kts 200°
2026-05-04 14:07 48.61914 8.08766 31491 ft 427 kts 200°
2026-05-04 14:08 48.59097 8.07336 31759 ft 429 kts 200°
2026-05-04 14:08 48.56261 8.05897 32071 ft 430 kts 200°
2026-05-04 14:08 48.53427 8.04462 32462 ft 429 kts 200°
2026-05-04 14:08 48.50601 8.03033 32832 ft 428 kts 200°
2026-05-04 14:09 48.44957 8.00184 33576 ft 427 kts 200°
2026-05-04 14:09 48.42139 7.98762 33936 ft 427 kts 200°
2026-05-04 14:10 48.36512 7.95931 34512 ft 426 kts 200°
2026-05-04 14:10 48.33703 7.94521 34766 ft 426 kts 200°
2026-05-04 14:10 48.30889 7.93110 35028 ft 426 kts 200°
2026-05-04 14:10 48.28078 7.91698 35301 ft 426 kts 200°
2026-05-04 14:11 48.25266 7.90285 35570 ft 426 kts 200°
2026-05-04 14:11 48.19641 7.87476 36095 ft 426 kts 200°
2026-05-04 14:11 48.16822 7.86070 36335 ft 427 kts 200°
2026-05-04 14:12 48.14003 7.84667 36601 ft 426 kts 200°
2026-05-04 14:12 48.11192 7.83269 36867 ft 426 kts 200°
2026-05-04 14:12 48.05564 7.80473 37338 ft 426 kts 200°
2026-05-04 14:13 48.02749 7.79077 37582 ft 426 kts 200°
2026-05-04 14:13 47.99935 7.77683 37822 ft 426 kts 200°
2026-05-04 14:13 47.97120 7.76290 38072 ft 426 kts 200°
2026-05-04 14:13 47.94304 7.74898 38306 ft 426 kts 200°
2026-05-04 14:14 47.91494 7.73511 38536 ft 426 kts 200°
2026-05-04 14:14 47.85869 7.70738 38883 ft 426 kts 200°
2026-05-04 14:14 47.83049 7.69350 38983 ft 428 kts 200°
2026-05-04 14:15 47.71737 7.63800 38989 ft 427 kts 200°
2026-05-04 14:16 47.63283 7.59669 38991 ft 426 kts 200°
2026-05-04 14:17 47.54857 7.55565 38988 ft 426 kts 200°
2026-05-04 14:18 47.46383 7.51452 39010 ft 428 kts 200°
2026-05-04 14:19 47.35052 7.45974 39003 ft 429 kts 200°
2026-05-04 14:19 47.29387 7.43245 39020 ft 429 kts 200°
2026-05-04 14:20 47.23718 7.40519 39022 ft 429 kts 200°
2026-05-04 14:20 47.18234 7.37164 39021 ft 426 kts 212°
2026-05-04 14:21 47.13663 7.31734 39021 ft 423 kts 229°
2026-05-04 14:21 47.11741 7.28464 39020 ft 423 kts 230°
2026-05-04 14:21 47.08069 7.21714 39020 ft 423 kts 232°
2026-05-04 14:22 47.04441 7.14912 39030 ft 423 kts 232°
2026-05-04 14:22 47.00809 7.08190 39035 ft 423 kts 231°
2026-05-04 14:23 46.95287 6.98101 39040 ft 423 kts 231°
2026-05-04 14:24 46.91613 6.91419 39042 ft 420 kts 231°
2026-05-04 14:24 46.87947 6.84769 39048 ft 419 kts 231°
2026-05-04 14:25 46.84279 6.78139 39050 ft 419 kts 231°
2026-05-04 14:25 46.78766 6.68205 39047 ft 420 kts 231°
2026-05-04 14:26 46.75092 6.61602 39043 ft 419 kts 231°
2026-05-04 14:26 46.71425 6.55027 39040 ft 418 kts 231°
2026-05-04 14:27 46.67754 6.48460 39055 ft 418 kts 231°
2026-05-04 14:27 46.64082 6.41908 39043 ft 418 kts 231°
2026-05-04 14:28 46.60431 6.35407 39041 ft 417 kts 231°
2026-05-04 14:28 46.56756 6.28881 39033 ft 417 kts 231°
2026-05-04 14:29 46.49386 6.15837 39048 ft 418 kts 231°
2026-05-04 14:30 46.45692 6.09323 39042 ft 418 kts 231°
2026-05-04 14:31 46.40148 5.99575 39065 ft 417 kts 231°
2026-05-04 14:32 46.32801 5.86709 39063 ft 414 kts 231°
2026-05-04 14:32 46.29129 5.80301 39058 ft 414 kts 231°
2026-05-04 14:33 46.25455 5.73904 39052 ft 414 kts 231°
2026-05-04 14:33 46.21774 5.67511 39042 ft 413 kts 231°
2026-05-04 14:34 46.18105 5.61153 39037 ft 411 kts 231°
2026-05-04 14:34 46.14514 5.54738 39031 ft 411 kts 234°
2026-05-04 14:35 46.11221 5.48024 39029 ft 410 kts 235°
2026-05-04 14:35 46.07980 5.41269 39028 ft 410 kts 235°
2026-05-04 14:36 46.04742 5.34510 39023 ft 410 kts 235°
2026-05-04 14:36 46.01504 5.27779 39029 ft 408 kts 235°
2026-05-04 14:37 45.98283 5.21112 39017 ft 408 kts 235°
2026-05-04 14:37 45.95039 5.14416 39019 ft 408 kts 235°
2026-05-04 14:38 45.91792 5.07729 39021 ft 409 kts 234°
2026-05-04 14:38 45.89077 5.02152 39020 ft 409 kts 234°
2026-05-04 14:39 45.85814 4.95462 39013 ft 409 kts 234°
2026-05-04 14:39 45.82547 4.88783 39022 ft 408 kts 234°
2026-05-04 14:40 45.77648 4.78792 39022 ft 408 kts 234°
2026-05-04 14:40 45.74374 4.72135 39016 ft 408 kts 234°
2026-05-04 14:41 45.71094 4.65481 39000 ft 411 kts 234°
2026-05-04 14:42 45.64489 4.52124 38989 ft 411 kts 234°
2026-05-04 14:42 45.61206 4.45505 38993 ft 411 kts 234°
2026-05-04 14:43 45.57894 4.38846 38993 ft 411 kts 234°
2026-05-04 14:43 45.54579 4.32198 38994 ft 411 kts 234°
2026-05-04 14:44 45.51263 4.25554 39002 ft 412 kts 234°
2026-05-04 14:44 45.47930 4.18900 38987 ft 412 kts 234°
2026-05-04 14:45 45.44592 4.12266 38985 ft 411 kts 234°
2026-05-04 14:45 45.41255 4.05646 38982 ft 411 kts 234°
2026-05-04 14:46 45.37917 3.99034 38975 ft 411 kts 234°
2026-05-04 14:46 45.34575 3.92431 38971 ft 411 kts 233°
2026-05-04 14:47 45.31248 3.85871 38979 ft 411 kts 233°
2026-05-04 14:47 45.27908 3.79300 38978 ft 409 kts 233°
2026-05-04 14:48 45.24573 3.72746 38953 ft 409 kts 234°
2026-05-04 14:48 45.21311 3.66134 38955 ft 409 kts 234°
2026-05-04 14:49 45.18069 3.59499 38960 ft 409 kts 234°
2026-05-04 14:49 45.14813 3.52880 38953 ft 409 kts 234°
2026-05-04 14:50 45.11552 3.46289 38947 ft 409 kts 234°
2026-05-04 14:50 45.08284 3.39707 38952 ft 408 kts 234°
2026-05-04 14:51 45.05011 3.33133 38948 ft 409 kts 234°
2026-05-04 14:51 45.01734 3.26564 38952 ft 408 kts 234°
2026-05-04 14:52 44.98459 3.20009 38944 ft 409 kts 234°
2026-05-04 14:52 44.95172 3.13447 38942 ft 409 kts 234°
2026-05-04 14:53 44.91885 3.06901 38950 ft 409 kts 234°
2026-05-04 14:53 44.88588 3.00349 38946 ft 411 kts 234°
2026-05-04 14:54 44.85268 2.93769 38945 ft 412 kts 234°
2026-05-04 14:54 44.82052 2.87146 38938 ft 412 kts 236°
2026-05-04 14:55 44.78973 2.80333 38937 ft 412 kts 237°
2026-05-04 14:55 44.75887 2.73523 38932 ft 412 kts 236°
2026-05-04 14:56 44.72772 2.66752 38951 ft 412 kts 236°
2026-05-04 14:56 44.69637 2.59991 38938 ft 413 kts 236°
2026-05-04 14:57 44.66493 2.53233 38925 ft 413 kts 236°
2026-05-04 14:57 44.63345 2.46480 38923 ft 413 kts 236°
2026-05-04 14:58 44.60199 2.39736 38929 ft 413 kts 236°
2026-05-04 14:58 44.57050 2.33014 38929 ft 412 kts 236°
2026-05-04 14:59 44.53898 2.26302 38927 ft 412 kts 236°
2026-05-04 15:00 44.49157 2.16233 38920 ft 415 kts 236°
2026-05-04 15:00 44.45951 2.09445 38923 ft 415 kts 236°
2026-05-04 15:01 44.41191 1.99386 38904 ft 415 kts 236°
2026-05-04 15:01 44.38001 1.92664 38899 ft 414 kts 235°
2026-05-04 15:02 44.34804 1.85947 38901 ft 416 kts 236°
2026-05-04 15:02 44.31588 1.79206 38898 ft 418 kts 236°
2026-05-04 15:03 44.28365 1.72448 38900 ft 418 kts 236°
2026-05-04 15:03 44.25227 1.65630 38903 ft 418 kts 237°
2026-05-04 15:04 44.22115 1.58790 38900 ft 418 kts 237°
2026-05-04 15:04 44.18989 1.51969 38919 ft 417 kts 237°
2026-05-04 15:05 44.15852 1.45174 38906 ft 417 kts 236°
2026-05-04 15:05 44.12703 1.38378 38905 ft 418 kts 236°
2026-05-04 15:06 44.09565 1.31620 38911 ft 418 kts 236°
2026-05-04 15:07 44.04832 1.21456 38918 ft 418 kts 236°
2026-05-04 15:07 44.01669 1.14681 38912 ft 417 kts 236°
2026-05-04 15:08 43.98510 1.07930 38916 ft 417 kts 236°
2026-05-04 15:08 43.95343 1.01178 38924 ft 417 kts 236°
2026-05-04 15:09 43.92175 0.94438 38925 ft 417 kts 236°
2026-05-04 15:09 43.88856 0.87849 38928 ft 417 kts 229°
2026-05-04 15:10 43.82601 0.79508 38917 ft 417 kts 222°
2026-05-04 15:11 43.76074 0.71518 38933 ft 419 kts 222°
2026-05-04 15:11 43.71730 0.66203 38934 ft 420 kts 222°
2026-05-04 15:12 43.67363 0.60844 38935 ft 420 kts 222°
2026-05-04 15:12 43.62988 0.55479 38921 ft 420 kts 222°
2026-05-04 15:13 43.58613 0.50123 38939 ft 420 kts 222°
2026-05-04 15:13 43.54232 0.44771 38946 ft 421 kts 222°
2026-05-04 15:14 43.49851 0.39431 38954 ft 421 kts 222°
2026-05-04 15:14 43.45449 0.34080 38954 ft 425 kts 222°
2026-05-04 15:15 43.41005 0.28683 38957 ft 426 kts 222°
2026-05-04 15:15 43.36560 0.23292 38957 ft 425 kts 222°
2026-05-04 15:16 43.29891 0.15243 38968 ft 425 kts 222°
2026-05-04 15:17 43.23219 0.07211 38967 ft 425 kts 222°
2026-05-04 15:17 43.16590 -0.00748 39005 ft 424 kts 222°
2026-05-04 15:18 43.12146 -0.06070 38992 ft 425 kts 222°
2026-05-04 15:19 43.05452 -0.14066 38987 ft 426 kts 222°
2026-05-04 15:19 42.98760 -0.22038 38973 ft 425 kts 222°
2026-05-04 15:20 42.94309 -0.27323 38967 ft 423 kts 222°
2026-05-04 15:20 42.89859 -0.32598 38948 ft 423 kts 222°
2026-05-04 15:21 42.85401 -0.37872 38965 ft 425 kts 222°
2026-05-04 15:22 42.78165 -0.44803 38964 ft 427 kts 207°
2026-05-04 15:22 42.69877 -0.49396 38957 ft 430 kts 203°
2026-05-04 15:23 42.64311 -0.52238 38934 ft 429 kts 204°
2026-05-04 15:23 42.58737 -0.55117 38925 ft 428 kts 204°
2026-05-04 15:24 42.47678 -0.60902 38929 ft 425 kts 204°
2026-05-04 15:25 42.43087 -0.63303 38930 ft 425 kts 204°
2026-05-04 15:26 42.34820 -0.67607 38929 ft 423 kts 204°
2026-05-04 15:26 42.26590 -0.71880 38928 ft 422 kts 204°
2026-05-04 15:27 42.18372 -0.76134 38927 ft 421 kts 204°
2026-05-04 15:28 42.10167 -0.80371 38933 ft 421 kts 204°
2026-05-04 15:29 42.01958 -0.84598 38931 ft 421 kts 204°
2026-05-04 15:30 41.82823 -0.94395 38967 ft 421 kts 204°
2026-05-04 15:31 41.74616 -0.98594 38956 ft 421 kts 204°
2026-05-04 15:32 41.61875 -1.07760 38966 ft 416 kts 222°
2026-05-04 15:34 41.51136 -1.20745 38957 ft 420 kts 224°
2026-05-04 15:34 41.44625 -1.28593 38941 ft 421 kts 224°
2026-05-04 15:35 41.38097 -1.36410 38942 ft 421 kts 224°
2026-05-04 15:36 41.31568 -1.44208 38943 ft 420 kts 224°
2026-05-04 15:36 41.27228 -1.49380 38947 ft 418 kts 224°
2026-05-04 15:37 41.22895 -1.54535 38952 ft 418 kts 224°
2026-05-04 15:37 41.18553 -1.59692 38911 ft 419 kts 224°
2026-05-04 15:38 41.16379 -1.62271 38706 ft 417 kts 224°
2026-05-04 15:38 41.14255 -1.64784 38492 ft 410 kts 224°
2026-05-04 15:38 41.12140 -1.67284 38123 ft 406 kts 224°
2026-05-04 15:38 41.10037 -1.69770 37579 ft 405 kts 224°
2026-05-04 15:39 41.07940 -1.72249 37038 ft 404 kts 224°
2026-05-04 15:39 41.05845 -1.74724 36526 ft 403 kts 224°
2026-05-04 15:39 41.01743 -1.79768 35449 ft 400 kts 229°
2026-05-04 15:40 40.99997 -1.82620 34894 ft 399 kts 236°
2026-05-04 15:40 40.98578 -1.85768 34343 ft 398 kts 243°
2026-05-04 15:40 40.97543 -1.89160 33768 ft 399 kts 251°
2026-05-04 15:40 40.96922 -1.92746 33027 ft 402 kts 260°
2026-05-04 15:41 40.96905 -1.96479 32176 ft 411 kts 273°
2026-05-04 15:41 40.97418 -2.00225 31434 ft 417 kts 279°
2026-05-04 15:41 40.98166 -2.03935 30803 ft 417 kts 282°
2026-05-04 15:41 40.98976 -2.07613 30255 ft 415 kts 282°
2026-05-04 15:42 40.99761 -2.11265 29647 ft 411 kts 281°
2026-05-04 15:42 41.00499 -2.14915 29037 ft 408 kts 280°
2026-05-04 15:42 41.01185 -2.18543 28434 ft 404 kts 280°
2026-05-04 15:42 41.01448 -2.22197 27821 ft 396 kts 265°
2026-05-04 15:43 41.01163 -2.25804 27248 ft 392 kts 259°
2026-05-04 15:43 41.00691 -2.29348 26694 ft 389 kts 258°
2026-05-04 15:43 41.00198 -2.32867 26110 ft 388 kts 259°
2026-05-04 15:43 40.99757 -2.36378 25554 ft 386 kts 261°
2026-05-04 15:44 40.99383 -2.39893 25037 ft 384 kts 262°
2026-05-04 15:44 40.99066 -2.43392 24500 ft 382 kts 263°
2026-05-04 15:44 40.98783 -2.46880 23982 ft 380 kts 264°
2026-05-04 15:44 40.98516 -2.50346 23457 ft 379 kts 264°
2026-05-04 15:45 40.98255 -2.53805 22863 ft 376 kts 264°
2026-05-04 15:45 40.97996 -2.57236 22325 ft 373 kts 264°
2026-05-04 15:45 40.97740 -2.60592 21807 ft 370 kts 264°
2026-05-04 15:45 40.97481 -2.63932 20919 ft 360 kts 264°
2026-05-04 15:46 40.97223 -2.67227 19915 ft 361 kts 264°
2026-05-04 15:46 40.96961 -2.70514 19242 ft 357 kts 264°
2026-05-04 15:46 40.96696 -2.73760 18625 ft 352 kts 264°
2026-05-04 15:46 40.96438 -2.76959 17961 ft 348 kts 264°
2026-05-04 15:47 40.96185 -2.80115 17104 ft 344 kts 264°
2026-05-04 15:47 40.95934 -2.83262 16217 ft 343 kts 264°
2026-05-04 15:47 40.95683 -2.86389 15377 ft 341 kts 264°
2026-05-04 15:47 40.95437 -2.89500 14577 ft 339 kts 263°
2026-05-04 15:48 40.95188 -2.92585 13818 ft 336 kts 263°
2026-05-04 15:48 40.94936 -2.95646 12988 ft 333 kts 263°
2026-05-04 15:48 40.94437 -3.01693 11654 ft 327 kts 263°
2026-05-04 15:49 40.94191 -3.04663 11212 ft 324 kts 263°
2026-05-04 15:49 40.93944 -3.07628 10701 ft 324 kts 263°
2026-05-04 15:49 40.93700 -3.10564 10445 ft 316 kts 263°
2026-05-04 15:49 40.93464 -3.13395 10328 ft 304 kts 263°
2026-05-04 15:50 40.93235 -3.16134 10115 ft 296 kts 263°
2026-05-04 15:50 40.93011 -3.18812 9872 ft 290 kts 263°
2026-05-04 15:50 40.92790 -3.21433 9609 ft 284 kts 263°
2026-05-04 15:50 40.92572 -3.24008 9347 ft 279 kts 263°
2026-05-04 15:51 40.92357 -3.26541 9096 ft 275 kts 263°
2026-05-04 15:51 40.92146 -3.29033 9001 ft 272 kts 263°
2026-05-04 15:51 40.91938 -3.31487 9001 ft 272 kts 263°
2026-05-04 15:51 40.91726 -3.33975 8999 ft 272 kts 263°
2026-05-04 15:52 40.91515 -3.36453 9002 ft 272 kts 264°
2026-05-04 15:52 40.91321 -3.38942 8996 ft 272 kts 267°
2026-05-04 15:52 40.91632 -3.41407 9005 ft 272 kts 284°
2026-05-04 15:52 40.92140 -3.43818 8830 ft 271 kts 284°
2026-05-04 15:53 40.92311 -3.46250 8549 ft 265 kts 265°
2026-05-04 15:53 40.92078 -3.48659 8267 ft 263 kts 261°
2026-05-04 15:53 40.91553 -3.50948 7971 ft 261 kts 240°
2026-05-04 15:53 40.90240 -3.52567 7707 ft 262 kts 212°
2026-05-04 15:54 40.88600 -3.53610 7433 ft 261 kts 206°
2026-05-04 15:54 40.86916 -3.54499 7160 ft 261 kts 199°
2026-05-04 15:54 40.85138 -3.55008 6847 ft 262 kts 192°
2026-05-04 15:54 40.83329 -3.55395 6482 ft 264 kts 192°
2026-05-04 15:55 40.81509 -3.55779 6136 ft 265 kts 193°
2026-05-04 15:55 40.79700 -3.56085 6001 ft 258 kts 189°
2026-05-04 15:55 40.77946 -3.56189 5996 ft 248 kts 184°
2026-05-04 15:55 40.76230 -3.56171 5998 ft 246 kts 183°
2026-05-04 15:56 40.74516 -3.56149 6001 ft 247 kts 182°
2026-05-04 15:56 40.72809 -3.56120 5937 ft 243 kts 182°
2026-05-04 15:56 40.71148 -3.56087 5661 ft 234 kts 182°
2026-05-04 15:56 40.69561 -3.56073 5315 ft 223 kts 182°
2026-05-04 15:57 40.68034 -3.56066 4980 ft 215 kts 182°
2026-05-04 15:57 40.66572 -3.56054 4683 ft 206 kts 182°
2026-05-04 15:57 40.65186 -3.56042 4400 ft 200 kts 184°
2026-05-04 15:57 40.63821 -3.56031 4202 ft 192 kts 184°
2026-05-04 15:58 40.62508 -3.56021 3908 ft 186 kts 184°
2026-05-04 15:58 40.61231 -3.56011 3652 ft 182 kts 182°
2026-05-04 15:58 40.59973 -3.56001 3402 ft 178 kts 183°
2026-05-04 15:58 40.58751 -3.55990 3160 ft 171 kts 184°
2026-05-04 15:59 40.57598 -3.55979 2930 ft 160 kts 185°
2026-05-04 15:59 40.56519 -3.55971 2727 ft 149 kts 185°
2026-05-04 15:59 40.55524 -3.55959 2513 ft 140 kts 185°
2026-05-04 15:59 40.54560 -3.55953 2328 ft 139 kts 187°
2026-05-04 16:00 40.53581 -3.55943 2150 ft 140 kts 184°
2026-05-04 16:00 40.52619 -3.55937 1978 ft 136 kts 185°
2026-05-04 16:00 40.51785 -3.55934 1957 ft 96 kts 179°
2026-05-04 16:00 40.51297 -3.55930 1956 ft 47 kts 180°
2026-05-04 16:01 40.51017 -3.55964 1964 ft 35 kts 199°
2026-05-04 16:01 40.50816 -3.56106 1975 ft 32 kts 208°
2026-05-04 16:01 40.50607 -3.56150 1967 ft 31 kts 180°
2026-05-04 16:01 40.50396 -3.56149 1967 ft 30 kts 180°
2026-05-04 16:02 40.50194 -3.56147 1963 ft 25 kts 180°
2026-05-04 16:02 40.50037 -3.56146 1963 ft 23 kts 180°
2026-05-04 16:02 40.49887 -3.56250 1965 ft 12 kts 182°
2026-05-04 16:03 40.49781 -3.56250 1966 ft 19 kts 179°
2026-05-04 16:03 40.49631 -3.56249 1965 ft 23 kts 180°
2026-05-04 16:03 40.49470 -3.56247 1965 ft 23 kts 180°
2026-05-04 16:03 40.49310 -3.56247 1966 ft 23 kts 180°
2026-05-04 16:04 40.49150 -3.56245 1966 ft 23 kts 179°
2026-05-04 16:04 40.48875 -3.56276 1967 ft 12 kts 235°
2026-05-04 16:04 40.48863 -3.56408 1970 ft 18 kts 269°
2026-05-04 16:05 40.48862 -3.56593 1975 ft 23 kts 270°
2026-05-04 16:05 40.48861 -3.56813 1980 ft 24 kts 270°
2026-05-04 16:05 40.48860 -3.57214 1987 ft 20 kts 269°
2026-05-04 16:06 40.48859 -3.57392 1990 ft 19 kts 270°
2026-05-04 16:06 40.48858 -3.57907 2002 ft 20 kts 270°
2026-05-04 16:07 40.48828 -3.58047 2005 ft 10 kts 197°
2026-05-04 16:07 40.48385 -3.57877 1997 ft 30 kts 147°
2026-05-04 16:08 40.48220 -3.57716 2000 ft 29 kts 142°
2026-05-04 16:08 40.47765 -3.57254 2002 ft 29 kts 142°
2026-05-04 16:09 40.47422 -3.56905 1994 ft 34 kts 142°
2026-05-04 16:09 40.47066 -3.56567 1986 ft 29 kts 158°
2026-05-04 16:10 40.46649 -3.56570 1982 ft 30 kts 183°
2026-05-04 16:11 40.46215 -3.56550 1977 ft 11 kts 111°
2026-05-04 16:11 40.46147 -3.56514 1977 ft 13 kts 184°
2026-05-04 16:12 40.46018 -3.56583 1980 ft 6 kts 269°
2026-05-04 16:12 40.46017 -3.56639 1976 ft 0 kts 269°